Weather History for KCRS - January, 2012

Change the Weather History Date:

Saturday, January 21, 2012

  Actual Average (KACT) Record (KACT)
Temperature  
Mean Temperature 52 °F 47 °F  
Max Temperature 62 °F 59 °F 82 °F (1999)
Min Temperature 41 °F 36 °F 14 °F (1984)
Degree Days  
Heating Degree Days 14 18  
Month to date heating degree days 383  
Since 1 July heating degree days 1235  
Cooling Degree Days 0 0  
Month to date cooling degree days 0  
Year to date cooling degree days 0  
Growing Degree Days 2 (Base 50)    
Moisture  
Dew Point 40 °F    
Average Humidity 73    
Maximum Humidity 90    
Minimum Humidity 57    
Precipitation  
Precipitation 0.00 in 0.07 in 1.94 in (1965)
Month to date precipitation 1.37  
Year to date precipitation 1.37  
Snow  
Snow 0.00 in 0.00 in 2.60 in (1966)
Month to date snowfall 0.2  
Since 1 July snowfall 0.3  
Snow Depth -    
Sea Level Pressure  
Sea Level Pressure 29.98 in    
Wind  
Wind Speed 10 mph (North)    
Max Wind Speed 17 mph    
Max Gust Speed 24 mph    
Visibility 8 miles    
Events      
T = Trace of Precipitation, MM = Missing Value Source: NWS Daily Summary

Daily Weather History Graph

Daily Weather History Graph

Search for Another Location

Airport or City:

Trip Planner

Search our weather history database for the weather conditions in past years. The results will help you decide how hot, cold, wet, or windy it might be!

Date:

Astronomy

Jan. 21, 2012 Rise Set
Actual Time 7:25 AM CST 5:48 PM CST
Civil Twilight 6:58 AM CST 6:15 PM CST
Nautical Twilight 6:29 AM CST 6:44 PM CST
Astronomical Twilight 5:59 AM CST 7:14 PM CST
Moon 5:54 AM CST (1/21) 4:27 PM CST (1/21)
Length of Visible Light 11h 16m
Length of Day
10h 23m
Waning Crescent, 3% of the Moon is Illuminated
Jan 21
Waning Crescent
Jan 23
New
Jan 30
First Quarter
Feb 7
Full
Feb 14
Last Quarter

Hourly Weather History & Observations

Time (CST) Temp. Windchill Dew Point Humidity Pressure Visibility Wind Dir Wind Speed Gust Speed Precip Events Conditions
12:24 AM 62.6 °F - 59.0 °F 88% 29.87 in 5.0 mi NW 6.9 mph - N/A   Mostly Cloudy
12:53 AM 62.1 °F - 59.0 °F 90% 29.86 in 5.0 mi NW 3.5 mph - N/A   Overcast
1:15 AM 59.0 °F - 53.6 °F 82% 29.89 in 6.0 mi NNW 13.8 mph - N/A   Haze
1:43 AM 53.6 °F - 42.8 °F 67% 29.91 in 10.0 mi North 13.8 mph - N/A   Overcast
2:53 AM 50.0 °F - 37.9 °F 63% 29.93 in 10.0 mi North 17.3 mph - N/A   Overcast
3:53 AM 48.9 °F - 37.9 °F 66% 29.95 in 10.0 mi North 12.7 mph 20.7 mph N/A   Overcast
4:42 AM 46.4 °F 40.4 °F 37.4 °F 71% 29.97 in 10.0 mi North 13.8 mph 21.9 mph N/A   Scattered Clouds
4:53 AM 46.0 °F 39.3 °F 37.9 °F 73% 29.97 in 10.0 mi North 16.1 mph 23.0 mph N/A   Clear
5:53 AM 43.0 °F 37.2 °F 37.0 °F 80% 29.99 in 9.0 mi North 10.4 mph - N/A   Clear
6:23 AM 42.8 °F 35.4 °F 37.4 °F 81% 30.00 in 9.0 mi North 15.0 mph - N/A   Mostly Cloudy
7:53 AM 41.0 °F 32.8 °F 35.1 °F 79% 30.05 in 6.0 mi North 16.1 mph 23.0 mph N/A   Haze
8:34 AM 41.0 °F 32.8 °F 33.8 °F 76% 30.07 in 7.0 mi North 16.1 mph 24.2 mph N/A   Scattered Clouds
8:53 AM 41.0 °F 33.9 °F 34.0 °F 76% 30.06 in 7.0 mi North 12.7 mph - N/A   Clear
9:33 AM 42.8 °F 35.8 °F 33.8 °F 70% 30.08 in 7.0 mi NNW 13.8 mph 19.6 mph N/A   Mostly Cloudy
9:53 AM 42.1 °F 34.9 °F 34.0 °F 73% 30.08 in 7.0 mi NNW 13.8 mph - N/A   Overcast
10:19 AM 42.8 °F 36.6 °F 33.8 °F 70% 30.08 in 7.0 mi NNW 11.5 mph - N/A   Scattered Clouds
10:53 AM 45.0 °F 39.3 °F 35.1 °F 68% 30.08 in 7.0 mi North 11.5 mph - N/A   Clear
11:53 AM 48.0 °F - 36.0 °F 63% 30.06 in 8.0 mi North 4.6 mph - N/A   Clear
12:53 PM 48.9 °F - 36.0 °F 61% 30.03 in 8.0 mi North 5.8 mph - N/A   Mostly Cloudy
1:53 PM 51.1 °F - 37.0 °F 59% 30.00 in 8.0 mi NNW 8.1 mph - N/A   Overcast
2:53 PM 52.0 °F - 37.0 °F 57% 29.99 in 8.0 mi North 5.8 mph - N/A   Overcast
3:53 PM 53.1 °F - 37.9 °F 57% 29.98 in 8.0 mi North 4.6 mph - N/A   Overcast
4:53 PM 52.0 °F - 39.0 °F 61% 29.96 in 7.0 mi North 3.5 mph - N/A   Overcast
5:53 PM 51.1 °F - 39.9 °F 66% 29.95 in 9.0 mi ESE 5.8 mph - N/A   Overcast
6:53 PM 50.0 °F - 41.0 °F 71% 29.95 in 8.0 mi SE 4.6 mph - N/A   Overcast
7:53 PM 50.0 °F - 42.1 °F 74% 29.96 in 8.0 mi SSE 3.5 mph - N/A   Overcast
8:53 PM 50.0 °F - 43.0 °F 77% 29.94 in 7.0 mi ESE 4.6 mph - N/A   Overcast
9:27 PM 50.0 °F - 42.8 °F 76% 29.93 in 7.0 mi SE 4.6 mph - N/A   Overcast
10:14 PM 48.2 °F - 42.8 °F 82% 29.93 in 7.0 mi South 5.8 mph - N/A   Scattered Clouds
10:53 PM 46.9 °F - 42.1 °F 83% 29.90 in 8.0 mi SE 6.9 mph - N/A   Clear
11:14 PM 48.2 °F - 42.8 °F 82% 29.90 in 7.0 mi SSE 5.8 mph - N/A   Mostly Cloudy
11:53 PM 50.0 °F - 44.1 °F 80% 29.88 in 6.0 mi SE 6.9 mph - N/A   Haze